Location: La Brionne
(46.1728°N, 1.7849°E)
Time: 07:45:49
(UTC+00:00)

Cosmos 1461 - Pass Details

Date: 16 June 2021
Orbit: 513 x 649 km, 65.0° (Epoch: 01 August)

Event Time Altitude Azimuth Distance (km) Brightness Sun altitude
Rises 21:22:05 0° 324° (NW) 2,823 8.6 -12.4°
Reaches altitude 10° 21:24:23 10° 326° (NW) 1,895 7.1 -12.7°
Maximum altitude 21:28:39 81° 53° (NE) 571 2.8 -13.1°
Enters shadow 21:31:13 22° 140° (SE) 1,227 4.0 -13.3°
